FENGYUN 1C DEB, 31955

Orbit data source: Space-Track

FENGYUN 1C DEB, 31955 is space debris in SSO originally from a launch on Mon, 10 May 1999 UTC launched from the Taiyaun Space Center, China (TSC). Fengyun 1C debris stems from the Chinese weather satellite Fengyun-1C, which was intentionally destroyed by a Chinese anti-satellite missile in 2007. This event dramatically increased the amount of space debris, with thousands of trackable fragments posing hazards to satellites and human spaceflight. The Fengyun 1C debris cloud has become a focal point in discussions about space sustainability and the need for international regulations to prevent the creation of new debris.

Loading next visibility...
Identifier
31955, 1999-025CNG
Orbit
SSO
Country
Flag of CNCN / PRC
Related business
Manufacturer
Unknown
Mission
Spacecraft
Bus & Motor
Unknown
Mass
Unknown
Launch date (UTC)
1999-05-10 (27 years ago)
Launch vehicle
Unknown
Launch site
Taiyaun Space Center, China (TSC)
Object type
Payload
Rocket body
Debris
Shape & HBR
Unknown shape, 0.1 m
Radar Cross Section
Small (<0.1 m²)

Expand to show TLE details & history
Last TLE update: 5 days ago

TLE from 5 days ago
0 FENGYUN 1C DEB
1 31955U 99025CNG 26260.00480619  .00008008  00000-0  13775-2 0  9993
2 31955  99.2618 177.6668 0043853  51.5153   9.7487 14.68290308  6365
Epoch: 2026-09-17T00:06Z
TLE epoch observation values (Epoch: 2026-09-17T00:06:55.254Z)
Latitude
60.11055°
Longitude
163.59829°
Altitude
646.272 km
Speed
7.557 km/s
True Right ascension
10h 45m 06s
True Declination
59° 57' 34"
Sunlit
Object was in daylight at epoch
Visualization orbit readout
Latitude
Unknown
Longitude
Unknown
Altitude
Unknown
Speed
Unknown
Apparent Right ascension
Unknown
Apparent Declination
Unknown
Sunlit
N/A
Visualization observer readout
Local Sidereal Time
14:53:14
Azimuth
Unknown
Elevation
Unknown
Doppler factor
Unknown
Orbital elements
Apogee altitude
694.534 km
Perigee altitude
632.773 km
Semi-major axis
7,041.791 km
Eccentricity
0.00439
Inclination
99.2618°
RAAN
177.6668°
Arg. of periapsis
51.5153°
True anomaly
9.83425°
Mean anomaly
9.7487°
Eccentric anomaly
9.79143°
Mean motion
3.67298 °/min
Orbital period
98.01 mins
BSTAR
0.0013775
Loading maneuver chart data...
Computing Atmospheric mass density...

Documentation

Showing up to 5 results
|